Change the Weather History Date:

Saturday, February 2, 2013

  Actual Average Record
Temperature  
Mean Temperature 20 °F -  
Max Temperature 25 °F 34 °F 57 °F (1968)
Min Temperature 14 °F 16 °F -16 °F (1951)
Degree Days  
Heating Degree Days 46    
Moisture  
Dew Point 15 °F    
Average Humidity 80    
Maximum Humidity 86    
Minimum Humidity 68    
Precipitation  
Precipitation 0.01 in - - ()
Sea Level Pressure  
Sea Level Pressure 30.06 in    
Wind  
Wind Speed 9 mph (SW)    
Max Wind Speed 14 mph    
Max Gust Speed 22 mph    
Visibility 4 miles    
Events Snow    
Averages and records for this station are not official NWS values.
T = Trace of Precipitation, MM = Missing Value Source: NWS Daily Summary

Daily Weather History Graph

Daily Weather History Graph

Search for Another Location

Airport or City:

Trip Planner

Search our weather history database for the weather conditions in past years. The results will help you decide how hot, cold, wet, or windy it might be!

Date:

Astronomy

Feb. 02, 2013 Rise Set
Actual Time 7:47 AM EST 5:55 PM EST
Civil Twilight 7:18 AM EST 6:24 PM EST
Nautical Twilight 6:45 AM EST 6:57 PM EST
Astronomical Twilight 6:13 AM EST 7:30 PM EST
Moon 12:05 AM EST (2/2) 10:52 AM EST (2/2)
Length of Visible Light 11h 06m
Length of Day
10h 07m
Waning Gibbous, 60% of the Moon is Illuminated
Feb 2
Waning Gibbous
Feb 3
Last Quarter
Feb 10
New
Feb 17
First Quarter
Feb 25
Full

Hourly Weather History & Observations

Time (EST) Temp. Windchill Dew Point Humidity Pressure Visibility Wind Dir Wind Speed Gust Speed Precip Events Conditions
12:53 AM 14.0 °F 2.9 °F 6.1 °F 71% 30.28 in 10.0 mi SSW 8.1 mph - N/A   Clear
1:53 AM 15.1 °F 3.3 °F 7.0 °F 70% 30.26 in 10.0 mi SSW 9.2 mph - N/A   Overcast
2:53 AM 16.0 °F 4.4 °F 7.0 °F 68% 30.25 in 10.0 mi SSW 9.2 mph - N/A   Overcast
3:58 AM 15.8 °F 4.2 °F 8.6 °F 73% 30.19 in 2.5 mi SSW 9.2 mph - 0.00 in Snow Light Snow
4:05 AM 15.8 °F 3.4 °F 10.4 °F 79% 30.18 in 2.0 mi SSW 10.4 mph - 0.00 in Snow Light Snow
4:24 AM 15.8 °F 2.7 °F 10.4 °F 79% 30.17 in 2.5 mi SSW 11.5 mph - 0.00 in Snow Light Snow
4:29 AM 15.8 °F 3.4 °F 10.4 °F 79% 30.16 in 1.8 mi SSW 10.4 mph - 0.00 in Snow Light Snow
4:43 AM 15.8 °F 4.2 °F 10.4 °F 79% 30.16 in 2.5 mi SSW 9.2 mph - 0.00 in Snow Light Snow
4:53 AM 16.0 °F 4.4 °F 10.9 °F 81% 30.20 in 2.5 mi SSW 9.2 mph - 0.00 in Snow Light Snow
5:07 AM 15.8 °F 3.4 °F 10.4 °F 79% 30.15 in 2.5 mi SSW 10.4 mph - 0.00 in Snow Light Snow
5:16 AM 17.6 °F 5.7 °F 10.4 °F 73% 30.15 in 4.0 mi SSW 10.4 mph - 0.00 in Snow Light Snow
5:53 AM 17.1 °F 6.6 °F 12.0 °F 81% 30.16 in 2.5 mi SSW 8.1 mph - 0.00 in Snow Light Snow
6:05 AM 17.6 °F 5.7 °F 12.2 °F 79% 30.11 in 4.0 mi SSW 10.4 mph - 0.00 in Snow Light Snow
7:18 AM 17.6 °F 4.3 °F 12.2 °F 79% 30.09 in 7.0 mi SSW 12.7 mph - 0.00 in Snow Light Snow
7:48 AM 17.6 °F 5.7 °F 12.2 °F 79% 30.08 in 2.0 mi SSW 10.4 mph - 0.00 in Snow Light Snow
7:49 AM 18.0 °F 6.1 °F 12.9 °F 81% 30.12 in 2.0 mi SSW 10.4 mph - 0.00 in Snow Light Snow
8:00 AM 17.6 °F 5.7 °F 12.2 °F 79% 30.07 in 1.5 mi SSW 10.4 mph - 0.00 in Snow Light Snow
8:15 AM 17.6 °F 5.7 °F 14.0 °F 86% 30.07 in 0.8 mi SSW 10.4 mph - 0.00 in Snow Light Snow
8:53 AM 19.0 °F 7.5 °F 15.1 °F 85% 30.10 in 2.0 mi SSW 10.4 mph - 0.01 in Snow Light Snow
9:14 AM 19.4 °F 7.9 °F 15.8 °F 86% 30.05 in 2.5 mi SSW 10.4 mph - 0.00 in Snow Light Snow
9:19 AM 19.4 °F 8.6 °F 15.8 °F 86% 30.05 in 3.0 mi SSW 9.2 mph - 0.00 in Snow Light Snow
9:25 AM 19.4 °F 9.5 °F 15.8 °F 86% 30.05 in 2.5 mi SSW 8.1 mph - 0.00 in Snow Light Snow
9:29 AM 19.4 °F 8.6 °F 15.8 °F 86% 30.05 in 1.8 mi SSW 9.2 mph - 0.00 in Snow Light Snow
9:40 AM 19.4 °F 7.9 °F 15.8 °F 86% 30.05 in 2.5 mi SSW 10.4 mph - 0.00 in Snow Light Snow
9:49 AM 19.4 °F 8.6 °F 15.8 °F 86% 30.04 in 1.8 mi SSW 9.2 mph - 0.00 in Snow Light Snow
9:53 AM 19.9 °F 7.3 °F 15.1 °F 81% 30.08 in 1.8 mi SSW 12.7 mph - 0.00 in Snow Light Snow
10:37 AM 21.2 °F 8.3 °F 15.8 °F 80% 30.02 in 2.5 mi SSW 13.8 mph 18.4 mph 0.00 in Snow Light Snow
10:53 AM 21.9 °F 10.4 °F 16.0 °F 78% 30.06 in 1.8 mi SSW 11.5 mph - 0.00 in Snow Light Snow
11:18 AM 21.2 °F 8.9 °F 15.8 °F 80% 30.01 in 2.0 mi SW 12.7 mph - 0.00 in Snow Light Snow
11:32 AM 21.2 °F 8.9 °F 15.8 °F 80% 30.01 in 2.0 mi SW 12.7 mph 21.9 mph 0.00 in Snow Light Snow
11:51 AM 21.2 °F 10.1 °F 17.6 °F 86% 30.00 in 3.0 mi SW 10.4 mph - 0.00 in Snow Light Snow
11:53 AM 23.0 °F 13.1 °F 17.1 °F 78% 30.04 in 4.0 mi SW 9.2 mph - 0.00 in Snow Light Snow
12:53 PM 23.0 °F 13.1 °F 17.1 °F 78% 30.01 in 10.0 mi SW 9.2 mph - 0.00 in   Overcast
1:53 PM 24.1 °F 16.0 °F 18.0 °F 77% 30.00 in 8.0 mi WSW 6.9 mph - N/A   Overcast
2:34 PM 24.8 °F 16.9 °F 17.6 °F 74% 29.95 in 7.0 mi SW 6.9 mph - 0.00 in   Overcast
2:53 PM 25.0 °F 16.3 °F 18.0 °F 75% 29.99 in 8.0 mi WSW 8.1 mph - 0.00 in   Overcast
3:36 PM 24.8 °F 19.1 °F 19.4 °F 80% 29.95 in 2.5 mi WSW 4.6 mph - 0.00 in Snow Light Snow
3:53 PM 25.0 °F 17.1 °F 19.0 °F 78% 29.99 in 2.5 mi West 6.9 mph - 0.00 in Snow Light Snow
4:01 PM 24.8 °F 16.9 °F 19.4 °F 80% 29.95 in 2.0 mi WSW 6.9 mph - 0.00 in Snow Light Snow
4:26 PM 24.8 °F 17.9 °F 19.4 °F 80% 29.96 in 2.5 mi WSW 5.8 mph - 0.00 in Snow Light Snow
4:40 PM 24.8 °F 17.9 °F 19.4 °F 80% 29.96 in 3.0 mi WSW 5.8 mph - 0.00 in Snow Light Snow
4:53 PM 25.0 °F 18.1 °F 19.0 °F 78% 30.00 in 4.0 mi WSW 5.8 mph - 0.00 in Snow Light Snow
5:20 PM 24.8 °F 19.1 °F 19.4 °F 80% 29.97 in 5.0 mi WSW 4.6 mph - 0.00 in   Haze
5:27 PM 24.8 °F 19.1 °F 19.4 °F 80% 29.97 in 5.0 mi WSW 4.6 mph - 0.00 in   Haze
5:53 PM 24.1 °F 17.0 °F 19.9 °F 84% 30.01 in 2.5 mi WSW 5.8 mph - 0.00 in Snow Light Snow
6:12 PM 24.8 °F 20.5 °F 19.4 °F 80% 29.97 in 3.0 mi WSW 3.5 mph - 0.00 in Snow Light Snow
6:19 PM 24.8 °F 19.1 °F 19.4 °F 80% 29.97 in 2.0 mi West 4.6 mph - 0.00 in Snow Light Snow
6:25 PM 24.8 °F 14.6 °F 19.4 °F 80% 29.98 in 1.8 mi NNW 10.4 mph - 0.00 in Snow Light Snow
6:33 PM 21.2 °F 8.9 °F 17.6 °F 86% 29.99 in 1.8 mi North 12.7 mph - 0.00 in Snow Light Snow
6:44 PM 21.2 °F 11.7 °F 17.6 °F 86% 29.99 in 1.8 mi North 8.1 mph - 0.00 in Snow Light Snow
6:53 PM 21.9 °F 10.4 °F 18.0 °F 85% 30.03 in 2.0 mi NNW 11.5 mph - 0.00 in Snow Light Snow
7:07 PM 21.2 °F 10.9 °F 17.6 °F 86% 30.00 in 2.5 mi NNW 9.2 mph - 0.00 in Snow Light Snow
7:14 PM 21.2 °F 11.7 °F 17.6 °F 86% 30.00 in 3.0 mi NNW 8.1 mph - 0.00 in Snow Light Snow
7:34 PM 21.2 °F 13.6 °F 15.8 °F 80% 30.00 in 5.0 mi North 5.8 mph - 0.00 in Snow Light Snow
7:53 PM 21.0 °F 14.6 °F 16.0 °F 81% 30.04 in 7.0 mi NNW 4.6 mph - 0.00 in   Overcast
8:53 PM 19.9 °F 11.1 °F 12.9 °F 74% 30.05 in 10.0 mi North 6.9 mph - 0.00 in   Overcast
9:53 PM 18.0 °F 8.7 °F 10.9 °F 74% 30.06 in 10.0 mi NNW 6.9 mph - N/A   Overcast
10:53 PM 18.0 °F 9.8 °F 10.0 °F 71% 30.06 in 10.0 mi North 5.8 mph - N/A   Overcast
11:53 PM 17.1 °F 11.7 °F 9.0 °F 71% 30.05 in 10.0 mi NNW 3.5 mph - N/A   Overcast